Simultaneous Nadir Overpasses (SNOs) Predictions

Prediction of SNOs between AQUA and NOAA-19 Satellite Orbit:

Table of predicted SNOs for the next 14.0 days since TLE Epoch: 5/17/2013
Index Date (AQUA) Time (AQUA) Lat,Lon (AQUA) SZA (AQUA ) Date (NOAA-19) Time (NOAA-19) Lat,Lon (NOAA-19) SZA (NOAA-19 ) Distance(km) Time Diff (sec)
1 05/19/2013 05:00:12 -49.91, -60.85 147.74 05/19/2013 04:59:06 -49.88, -60.96 147.87 8.74 66
2 05/19/2013 05:48:37 46.09, 108.29 29.36 05/19/2013 05:49:09 46.02, 107.89 29.21 31.77 32
3 05/21/2013 09:44:30 -49.84,-131.90 148.23 05/21/2013 09:43:26 -49.83,-132.01 148.35 8.05 64
4 05/21/2013 10:32:56 46.09, 37.21 28.93 05/21/2013 10:33:30 46.02, 36.81 28.79 31.14 34
5 05/23/2013 14:28:46 -49.69, 157.08 148.77 05/23/2013 14:27:44 -49.67, 156.98 148.88 7.13 62
6 05/23/2013 15:17:15 46.12, -33.88 28.55 05/23/2013 15:17:51 46.04, -34.26 28.39 30.62 36
7 05/25/2013 19:13:02 -49.56, 86.06 149.26 05/25/2013 19:12:02 -49.52, 85.98 149.39 6.77 60
8 05/25/2013 20:01:33 46.11,-104.96 28.16 05/25/2013 20:02:12 46.06,-105.35 28.03 30.25 39
9 05/27/2013 23:57:17 -49.40, 15.04 149.75 05/27/2013 23:56:20 -49.38, 14.97 149.86 5.73 57
10 05/28/2013 00:45:50 46.07,-176.02 27.77 05/28/2013 00:46:31 45.98,-176.39 27.62 29.79 41
11 05/30/2013 04:41:31 -49.21, -55.95 150.24 05/30/2013 04:40:37 -49.19, -56.01 150.35 5.12 54




NCC Satellite Simultaneous Nadir Overpasses (SNOs) Prediction Service
